VULCAN1 EGXW-EGXW

Flight info

Callsign VULCAN1
Flight time N/A
Altitude 30000
Route D179F DCT DTY DCT GST DCT LANLO DCT KOPIP/N0465F320 DCT XERES DCT TUNAV DCT BAROK/N0464F340 DCT NISBA DCT AMPIR DCT XAVIR DCT ORSUP DCT KAHIL/N0461F360 DCT KRIMA DCT KAHIL DCT ORSUP/N0456F380 DCT XAVIR DCT AMPIR DCT BAROK DCT TUNAV/N0465F400 DCT XERES DCT KOPIP DCT LANLO DCT GST DCT DTY
Aircraft VULC/M-SDGRWY/S

Departure

Time 2026-05-08 08:29
Airport RAF Waddington (EGXW)

Arrival

Time N/A
Airport RAF Waddington (EGXW)
Time Latitude Longitude Altitude Speed Heading
2026-05-08 08:16 53.15340 -0.52900 239 ft 0 kts 352°
2026-05-08 08:23 53.15341 -0.52900 239 ft 1 kts 352°
2026-05-08 08:23 53.15370 -0.52907 239 ft 9 kts 352°
2026-05-08 08:23 53.15451 -0.52912 237 ft 13 kts 27°
2026-05-08 08:23 53.15532 -0.52797 237 ft 18 kts 24°
2026-05-08 08:24 53.15669 -0.52705 235 ft 24 kts 22°
2026-05-08 08:24 53.15834 -0.52595 233 ft 26 kts 20°
2026-05-08 08:24 53.16004 -0.52487 233 ft 26 kts 21°
2026-05-08 08:24 53.16172 -0.52375 235 ft 27 kts 22°
2026-05-08 08:25 53.16362 -0.52248 232 ft 33 kts 21°
2026-05-08 08:25 53.16586 -0.52100 234 ft 36 kts 21°
2026-05-08 08:25 53.16816 -0.51948 237 ft 35 kts 22°
2026-05-08 08:25 53.17053 -0.51789 237 ft 39 kts 22°
2026-05-08 08:26 53.17307 -0.51622 235 ft 32 kts 22°
2026-05-08 08:26 53.17510 -0.51487 237 ft 25 kts 21°
2026-05-08 08:26 53.17652 -0.51451 233 ft 9 kts 337°
2026-05-08 08:26 53.17663 -0.51460 236 ft 3 kts 333°
2026-05-08 08:27 53.17690 -0.51483 234 ft 6 kts 328°
2026-05-08 08:27 53.17725 -0.51554 235 ft 10 kts 296°
2026-05-08 08:27 53.17709 -0.51660 235 ft 10 kts 217°
2026-05-08 08:27 53.17674 -0.51685 234 ft 1 kts 199°
2026-05-08 08:28 53.17663 -0.51691 236 ft 3 kts 199°
2026-05-08 08:28 53.17643 -0.51703 235 ft 0 kts 199°
2026-05-08 08:28 53.17477 -0.51813 232 ft 72 kts 202°
2026-05-08 08:28 53.16719 -0.52308 240 ft 159 kts 201°
2026-05-08 08:29 53.15640 -0.53063 1038 ft 168 kts 201°
2026-05-08 08:29 53.14539 -0.53841 2062 ft 181 kts 201°
2026-05-08 08:29 53.13276 -0.54724 2646 ft 210 kts 201°
2026-05-08 08:29 53.11858 -0.55641 3363 ft 226 kts 195°
2026-05-08 08:30 53.10246 -0.55581 4078 ft 238 kts 169°
2026-05-08 08:30 53.08599 -0.55091 4989 ft 243 kts 170°
2026-05-08 08:30 53.05185 -0.54116 6815 ft 254 kts 171°
2026-05-08 08:31 53.03419 -0.53642 7710 ft 260 kts 172°
2026-05-08 08:31 53.01634 -0.53187 8664 ft 265 kts 173°
2026-05-08 08:31 52.99785 -0.52748 9635 ft 271 kts 174°
2026-05-08 08:32 52.99041 -0.52581 10029 ft 274 kts 175°
2026-05-08 08:32 52.97126 -0.52184 10941 ft 280 kts 175°
2026-05-08 08:32 52.95175 -0.51824 11914 ft 284 kts 176°
2026-05-08 08:33 52.93190 -0.51507 12921 ft 289 kts 177°
2026-05-08 08:33 52.91207 -0.51226 13960 ft 293 kts 177°
2026-05-08 08:33 52.89157 -0.50983 14932 ft 297 kts 178°
2026-05-08 08:33 52.87073 -0.50779 15958 ft 301 kts 179°
2026-05-08 08:34 52.84967 -0.50621 17041 ft 305 kts 180°
2026-05-08 08:34 52.82836 -0.50508 18178 ft 309 kts 180°
2026-05-08 08:34 52.80676 -0.50448 19230 ft 313 kts 181°
2026-05-08 08:34 52.78483 -0.50447 20302 ft 318 kts 182°
2026-05-08 08:35 52.76261 -0.50504 21421 ft 321 kts 183°
2026-05-08 08:35 52.74013 -0.50636 22577 ft 325 kts 185°
2026-05-08 08:35 52.72158 -0.51273 23475 ft 327 kts 199°
2026-05-08 08:35 52.70230 -0.52513 24432 ft 328 kts 205°
2026-05-08 08:36 52.68182 -0.54177 25479 ft 329 kts 209°
2026-05-08 08:36 52.66170 -0.55986 26520 ft 330 kts 211°
2026-05-08 08:36 52.64257 -0.58090 27577 ft 331 kts 217°
2026-05-08 08:36 52.62356 -0.60244 28653 ft 332 kts 217°
2026-05-08 08:37 52.60471 -0.62451 29737 ft 333 kts 217°
2026-05-08 08:37 52.58582 -0.64651 30711 ft 332 kts 218°
2026-05-08 08:37 52.56722 -0.66822 31595 ft 331 kts 218°
2026-05-08 08:37 52.54813 -0.69046 32367 ft 334 kts 218°
2026-05-08 08:38 52.52901 -0.71270 33035 ft 339 kts 218°
2026-05-08 08:38 52.50923 -0.73569 33126 ft 362 kts 219°
2026-05-08 08:38 52.48788 -0.76046 33060 ft 389 kts 218°
2026-05-08 08:38 52.46500 -0.78693 33043 ft 415 kts 218°